STARLINK-32745, 62755

Orbit data source: Space-Track

STARLINK-32745, 62755 is a payload satellite owned by SpaceX/Seattle (US) in LEO that was launched on Tue, 21 Jan 2025 UTC via an FALCON 9 launch vehicle from the Air Force Eastern Test Range (AFETR). Payload-class satellites include a variety of spacecraft equipped with specific instruments for various scientific and technological missions. These include communications satellites like Starlink; space stations such as the ISS; scientific satellites like the Hubble; Earth observation satellites from companies like Planet Labs, Umbra, and HawkEye 360; GPS; miniature CubeSats for education and research; and military/defense satellites.

Loading next visibility...
Identifier
62755, 2025-014W
Orbit
LEO
Country
Flag of USUS
Related business
Manufacturer
SpaceX/Seattle
Mission
Operational Commercial Communications
Bus & Motor
STARLINK V2M, Unknown motor
Mass
730 kg wet, ~700 kg dry
Launch date (UTC)
2025-01-21 (11 months ago)
Launch vehicle
FALCON 9
Launch site
Air Force Eastern Test Range (AFETR)
Object type
Payload
Rocket body
Debris
Shape & HBR
Box + 2 Pan, 17.7 m
Radar Cross Section
33.884 m², Large (>1 m²)

Expand to show TLE details & history
Last TLE update: 19 hours ago

TLE from 19 hours ago
0 STARLINK-32745
1 62755U 25014W   25348.80596786  .00024434  00000-0  89454-3 0  9998
2 62755  42.9996 273.9296 0001689 250.8416 109.2253 15.27578558 50273
Epoch: 2025-12-14T19:20Z
TLE epoch observation values (Epoch: 2025-12-14T19:20:35.623Z)
Latitude
0.00001°
Longitude
-99.93243°
Altitude
483.21 km
Speed
7.625 km/s
True Right ascension
18h 15m 43s
True Declination
0° 00' 00"
Sunlit
Object was in daylight at epoch
Visualization orbit readout
Latitude
Unknown
Longitude
Unknown
Altitude
Unknown
Speed
Unknown
Apparent Right ascension
Unknown
Apparent Declination
Unknown
Sunlit
N/A
Visualization observer readout
Local Sidereal Time
13:19:49
Azimuth
Unknown
Elevation
Unknown
Doppler factor
Unknown
Orbital elements
Apogee altitude
486.158 km
Perigee altitude
483.839 km
Semi-major axis
6,863.136 km
Eccentricity
0.00017
Inclination
42.9996°
RAAN
273.9296°
Arg. of periapsis
250.8416°
True anomaly
109.24357°
Mean anomaly
109.2253°
Eccentric anomaly
109.23444°
Mean motion
3.81733 °/min
Orbital period
94.31 mins
BSTAR
0.00089454
Loading maneuver chart data...
Computing Atmospheric mass density...
Loading historical data...
Loading historical data...
Loading historical data...
Loading historical data...
Loading historical data...
Loading historical data...
Loading historical data...

Documentation

Showing up to 5 results
|